MDT,Max TemperatureF,Mean TemperatureF,Min TemperatureF,Max Dew PointF,MeanDew PointF,Min DewpointF,Max Humidity, Mean Humidity, Min Humidity, Max Sea Level PressureIn, Mean Sea Level PressureIn, Min Sea Level PressureIn, Max VisibilityMiles, Mean VisibilityMiles, Min VisibilityMiles, Max Wind SpeedMPH, Mean Wind SpeedMPH, Max Gust SpeedMPH,PrecipitationIn, CloudCover, Events, WindDirDegrees
2012-9-1,66,58,48,46,43,36,87,64,32,30.26,30.22,30.17,10.0,9.8,5.0,25,14,34,0.00,1,Rain-Thunderstorm,236
2012-9-2,66,54,42,45,32,19,100,48,20,30.31,30.28,30.24,10.0,9.6,0.2,20,12,31,0.00,1,Fog,247
2012-9-3,69,60,51,32,24,14,47,28,12,30.32,30.29,30.25,10.0,10.0,10.0,21,7,31,0.00,0,,255
2012-9-4,69,60,50,27,20,12,38,22,12,30.30,30.26,30.21,10.0,10.0,10.0,21,7,31,0.00,0,,270
2012-9-5,69,58,48,21,15,10,34,20,10,30.30,30.24,30.18,10.0,10.0,10.0,22,10,32,0.00,0,,259
2012-9-6,71,56,42,41,23,12,93,33,15,30.30,30.21,30.16,10.0,10.0,7.0,22,9,36,0.00,3,Rain,282
2012-9-7,60,50,41,41,36,32,87,60,36,30.47,30.38,30.29,10.0,10.0,10.0,13,5,16,0.00,3,,29
2012-9-8,69,56,44,32,26,18,61,33,15,30.49,30.45,30.40,10.0,10.0,10.0,10,5,17,0.00,0,,242
2012-9-9,71,61,51,32,20,10,34,21,9,30.39,30.29,30.20,10.0,10.0,10.0,18,7,26,0.00,0,,242
2012-9-10,71,63,53,46,36,32,67,41,25,30.21,30.15,30.11,10.0,10.0,10.0,22,13,39,0.13,1,Rain-Thunderstorm,244
2012-9-11,64,55,44,41,32,10,76,46,14,30.23,30.13,30.10,10.0,10.0,10.0,21,7,32,0.00,0,,266
2012-9-12,59,49,39,28,24,16,61,42,22,30.45,30.31,30.23,10.0,10.0,10.0,17,11,25,0.00,0,,349
2012-9-13,66,54,41,16,12,9,36,17,11,30.57,30.54,30.45,10.0,10.0,10.0,14,6,21,0.00,0,,277
2012-9-14,69,60,51,19,12,9,28,16,9,30.57,30.48,30.40,10.0,10.0,10.0,16,5,23,0.00,0,,242
2012-9-15,71,63,55,14,8,3,17,12,7,30.40,30.35,30.30,10.0,10.0,10.0,21,8,25,0.00,0,,271
2012-9-16,66,55,44,34,20,9,66,27,13,30.30,30.27,30.21,10.0,10.0,10.0,23,8,31,0.00,4,Rain,320
2012-9-17,57,47,37,34,32,28,87,58,38,30.29,30.26,30.23,10.0,10.0,7.0,15,7,,0.00,2,Thunderstorm,13
2012-9-18,68,56,44,28,23,21,46,29,17,30.32,30.28,30.23,10.0,10.0,10.0,20,5,25,0.00,0,,256
2012-9-19,68,59,50,23,20,16,32,23,15,30.36,30.31,30.26,10.0,10.0,10.0,16,8,22,0.00,0,,304
2012-9-20,68,58,48,25,22,19,37,27,16,30.34,30.31,30.28,10.0,10.0,10.0,18,12,22,0.00,0,,339
2012-9-21,68,59,50,27,22,21,35,27,17,30.38,30.34,30.31,10.0,9.6,7.0,17,9,16,0.00,0,,8
2012-9-22,69,60,50,27,19,9,40,23,12,30.38,30.34,30.30,10.0,10.0,10.0,12,7,26,0.00,0,,259
2012-9-23,69,60,51,37,20,9,58,24,14,30.31,30.28,30.25,10.0,10.0,10.0,22,6,30,0.00,3,Rain,255
2012-9-24,62,54,46,41,36,32,81,52,32,30.26,30.18,30.11,10.0,10.0,10.0,20,7,23,0.01,6,Rain-Thunderstorm,270
2012-9-25,57,50,44,43,39,36,93,72,48,30.16,30.11,30.09,10.0,9.8,4.0,15,6,21,0.04,6,Rain-Thunderstorm,332
2012-9-26,53,48,42,43,38,36,93,71,54,30.25,30.19,30.14,10.0,10.0,10.0,12,3,17,0.00,5,Thunderstorm,31
2012-9-27,57,50,42,43,38,36,87,66,48,30.29,30.26,30.23,10.0,10.0,10.0,8,5,,0.00,5,Thunderstorm,260
2012-9-28,62,54,46,41,32,18,71,47,19,30.29,30.24,30.19,10.0,10.0,10.0,17,8,22,0.00,4,Thunderstorm,247
2012-9-29,59,52,46,34,31,27,62,46,29,30.32,30.25,30.21,10.0,10.0,10.0,20,7,26,0.00,4,,288
2012-9-30,64,54,44,34,29,27,58,41,26,30.40,30.33,30.28,10.0,10.0,10.0,21,11,26,0.00,2,,314